21kousinmaru — JD2168 — position and weather

sailwx.info

Track history (hours):
 
Tides and Currents Weather Stations Pressure Air Temp Water Temp Dewpoint Dewpoint Depression Visibility Wind Speed Wind Dir Waves Ship Positions

21kousinmaru

Last reported at 2017-Nov-15 07:11 UTC. Time now 2017-Nov-18 06:16 UTC.
Position N 34°37' E 135°02'.

Length 68 m; draft 4.5 m.

MMSI: 431501835.

Date/timePositionNaut miles runAvg speedWind from/ knotsBaromVisibWave heightAir tempDewpointWater temp
2017-Nov-15 07:11N 34°37' E 135°02'211.8
2017-Nov-15 07:00N 34°36' E 135°05'511.2
2017-Nov-15 06:30N 34°34' E 135°11'711.4
2017-Nov-15 05:56N 34°33' E 135°18'1 2.0
2017-Nov-15 05:30N 34°32' E 135°19'0 0.0
2017-Nov-15 05:01N 34°32' E 135°19'3 6.1
2017-Nov-15 04:30N 34°33' E 135°23'2 0.3
2017-Nov-14 22:54N 34°33' E 135°25'3 7.8
2017-Nov-14 22:30N 34°33' E 135°21'2 1.5
2017-Nov-14 21:20N 34°32' E 135°20'0 0.0
2017-Nov-14 20:50N 34°32' E 135°20'0 0.1
2017-Nov-14 20:26N 34°32' E 135°20'0 0.0
2017-Nov-14 19:44N 34°32' E 135°20'0 0.0
2017-Nov-14 19:14N 34°32' E 135°20'0 0.0
2017-Nov-14 18:56N 34°32' E 135°20'0 0.0
2017-Nov-14 18:20N 34°32' E 135°20'0 0.0
2017-Nov-14 17:56N 34°32' E 135°20'0 0.1
2017-Nov-14 17:26N 34°32' E 135°20'0 0.0
2017-Nov-14 16:50N 34°32' E 135°20'2 6.4
2017-Nov-14 16:30N 34°31' E 135°18'612.1
2017-Nov-14 15:59N 34°27' E 135°12'611.6
2017-Nov-14 15:29N 34°23' E 135°07'1110.1
2017-Nov-14 14:25N 34°14' E 134°60'511.2
2017-Nov-14 13:59N 34°09' E 135°00'  
2017-Nov-12 02:01N 35°29' E 139°55'211.8
2017-Nov-12 01:51N 35°30' E 139°53'410.7
2017-Nov-12 01:30N 35°30' E 139°48'2 1.3
2017-Nov-12 00:07N 35°31' E 139°46'0 0.0
2017-Nov-11 23:55N 35°31' E 139°46'0 0.0
2017-Nov-11 23:25N 35°31' E 139°46'0 0.0
2017-Nov-11 22:55N 35°31' E 139°46'0 0.0
2017-Nov-11 22:25N 35°31' E 139°46'0 0.9
2017-Nov-11 22:00N 35°30' E 139°47'3 5.3
2017-Nov-11 21:30N 35°29' E 139°49'0 0.0
2017-Nov-11 20:40N 35°29' E 139°49'0 0.0
2017-Nov-11 19:37N 35°29' E 139°49'0 0.0
2017-Nov-11 17:40N 35°29' E 139°49'0 0.0
2017-Nov-11 17:28N 35°29' E 139°49'0 0.0
2017-Nov-11 16:04N 35°29' E 139°49'0 0.0
2017-Nov-11 15:50N 35°29' E 139°49'2 6.4
2017-Nov-11 15:30N 35°27' E 139°48'611.4
2017-Nov-11 15:00N 35°21' E 139°45'510.5
2017-Nov-11 14:30N 35°16' E 139°46'510.8
2017-Nov-11 14:00N 35°11' E 139°46'611.5
2017-Nov-11 13:30N 35°05' E 139°44'611.3
2017-Nov-11 13:00N 35°02' E 139°39'611.3
2017-Nov-11 12:30N 34°58' E 139°33'23110.0
2017-Nov-10 13:20N 34°07' E 134°59'2010.8
2017-Nov-10 11:31N 34°26' E 135°08'113.0
2017-Nov-10 11:26N 34°26' E 135°09'613.0
2017-Nov-10 10:58N 34°29' E 135°15'713.0
2017-Nov-10 10:25N 34°33' E 135°23'2 0.4
2017-Nov-10 05:03N 34°33' E 135°25'010.2
2017-Nov-10 05:00N 34°33' E 135°25'5 9.6
2017-Nov-10 04:30N 34°33' E 135°19'4 7.6
2017-Nov-10 04:00N 34°33' E 135°24'1 0.2
2017-Nov-09 22:53N 34°33' E 135°25'4 1.4
2017-Nov-09 19:47N 34°32' E 135°20'0 0.0
2017-Nov-09 19:23N 34°32' E 135°20'0 0.0
2017-Nov-09 17:59N 34°32' E 135°20'0 0.0
2017-Nov-09 17:17N 34°32' E 135°20'0 0.0
2017-Nov-09 16:59N 34°32' E 135°20'0 0.0
2017-Nov-09 13:37N 34°32' E 135°20'1 5.9
2017-Nov-09 13:30N 34°31' E 135°20'611.7
2017-Nov-09 13:00N 34°28' E 135°13'611.4
2017-Nov-09 12:27N 34°24' E 135°08'1310.2
2017-Nov-09 11:09N 34°13' E 134°60'211.1
2017-Nov-09 10:59N 34°11' E 134°60'244 9.4
2017-Nov-08 09:01N 35°13' E 139°46'211.8
2017-Nov-08 08:52N 35°15' E 139°46'411.7
2017-Nov-08 08:30N 35°18' E 139°44'611.1
2017-Nov-08 08:00N 35°24' E 139°43'611.3
2017-Nov-08 07:30N 35°28' E 139°48'7 1.1
2017-Nov-08 00:54N 35°30' E 139°57'1 2.0
2017-Nov-08 00:29N 35°29' E 139°56'0 0.0
2017-Nov-07 23:58N 35°29' E 139°56'0 0.0
2017-Nov-07 22:29N 35°29' E 139°56'0 0.0
2017-Nov-07 21:57N 35°29' E 139°56'0 0.0
2017-Nov-07 19:57N 35°29' E 139°56'0 0.0
2017-Nov-07 18:43N 35°29' E 139°56'0 0.0
2017-Nov-07 18:29N 35°29' E 139°56'0 0.0
2017-Nov-07 17:46N 35°29' E 139°56'0 0.0
2017-Nov-07 17:25N 35°29' E 139°56'0 0.0
2017-Nov-07 16:59N 35°29' E 139°56'0 0.0
2017-Nov-07 16:29N 35°29' E 139°56'0 0.0
2017-Nov-07 14:10N 35°29' E 139°56'0 0.0
2017-Nov-07 11:34N 35°29' E 139°56'0 0.0
2017-Nov-07 11:29N 35°29' E 139°56'0 0.0
2017-Nov-07 10:00N 35°29' E 139°56'0 0.0
2017-Nov-07 09:20N 35°29' E 139°56'0 0.0
2017-Nov-07 08:56N 35°29' E 139°56'0 0.0
2017-Nov-07 08:21N 35°29' E 139°56'4 2.0
2017-Nov-07 06:19N 35°28' E 139°51'413.1
2017-Nov-07 06:00N 35°25' E 139°47'613.2
2017-Nov-07 05:31N 35°19' E 139°44'612.4
2017-Nov-07 04:59N 35°13' E 139°47'  
Track history (hours):
 
Tides and Currents Weather Stations Pressure Air Temp Water Temp Dewpoint Dewpoint Depression Visibility Wind Speed Wind Dir Waves Ship Positions

21kousinmaru

Last reported at 2017-Nov-15 07:11 UTC. Time now 2017-Nov-18 06:16 UTC.
Position N 34°37' E 135°02'.

Length 68 m; draft 4.5 m.

MMSI: 431501835.

Date/timePositionNaut miles runAvg speedWind from/ knotsBaromVisibWave heightAir tempDewpointWater temp
2017-Nov-15 07:11N 34°37' E 135°02'211.8
2017-Nov-15 07:00N 34°36' E 135°05'511.2
2017-Nov-15 06:30N 34°34' E 135°11'711.4
2017-Nov-15 05:56N 34°33' E 135°18'1 2.0
2017-Nov-15 05:30N 34°32' E 135°19'0 0.0
2017-Nov-15 05:01N 34°32' E 135°19'3 6.1
2017-Nov-15 04:30N 34°33' E 135°23'2 0.3
2017-Nov-14 22:54N 34°33' E 135°25'3 7.8
2017-Nov-14 22:30N 34°33' E 135°21'2 1.5
2017-Nov-14 21:20N 34°32' E 135°20'0 0.0
2017-Nov-14 20:50N 34°32' E 135°20'0 0.1
2017-Nov-14 20:26N 34°32' E 135°20'0 0.0
2017-Nov-14 19:44N 34°32' E 135°20'0 0.0
2017-Nov-14 19:14N 34°32' E 135°20'0 0.0
2017-Nov-14 18:56N 34°32' E 135°20'0 0.0
2017-Nov-14 18:20N 34°32' E 135°20'0 0.0
2017-Nov-14 17:56N 34°32' E 135°20'0 0.1
2017-Nov-14 17:26N 34°32' E 135°20'0 0.0
2017-Nov-14 16:50N 34°32' E 135°20'2 6.4
2017-Nov-14 16:30N 34°31' E 135°18'612.1
2017-Nov-14 15:59N 34°27' E 135°12'611.6
2017-Nov-14 15:29N 34°23' E 135°07'1110.1
2017-Nov-14 14:25N 34°14' E 134°60'511.2
2017-Nov-14 13:59N 34°09' E 135°00'  
2017-Nov-12 02:01N 35°29' E 139°55'211.8
2017-Nov-12 01:51N 35°30' E 139°53'410.7
2017-Nov-12 01:30N 35°30' E 139°48'2 1.3
2017-Nov-12 00:07N 35°31' E 139°46'0 0.0
2017-Nov-11 23:55N 35°31' E 139°46'0 0.0
2017-Nov-11 23:25N 35°31' E 139°46'0 0.0
2017-Nov-11 22:55N 35°31' E 139°46'0 0.0
2017-Nov-11 22:25N 35°31' E 139°46'0 0.9
2017-Nov-11 22:00N 35°30' E 139°47'3 5.3
2017-Nov-11 21:30N 35°29' E 139°49'0 0.0
2017-Nov-11 20:40N 35°29' E 139°49'0 0.0
2017-Nov-11 19:37N 35°29' E 139°49'0 0.0
2017-Nov-11 17:40N 35°29' E 139°49'0 0.0
2017-Nov-11 17:28N 35°29' E 139°49'0 0.0
2017-Nov-11 16:04N 35°29' E 139°49'0 0.0
2017-Nov-11 15:50N 35°29' E 139°49'2 6.4
2017-Nov-11 15:30N 35°27' E 139°48'611.4
2017-Nov-11 15:00N 35°21' E 139°45'510.5
2017-Nov-11 14:30N 35°16' E 139°46'510.8
2017-Nov-11 14:00N 35°11' E 139°46'611.5
2017-Nov-11 13:30N 35°05' E 139°44'611.3
2017-Nov-11 13:00N 35°02' E 139°39'611.3
2017-Nov-11 12:30N 34°58' E 139°33'23110.0
2017-Nov-10 13:20N 34°07' E 134°59'2010.8
2017-Nov-10 11:31N 34°26' E 135°08'113.0
2017-Nov-10 11:26N 34°26' E 135°09'613.0
2017-Nov-10 10:58N 34°29' E 135°15'713.0
2017-Nov-10 10:25N 34°33' E 135°23'2 0.4
2017-Nov-10 05:03N 34°33' E 135°25'010.2
2017-Nov-10 05:00N 34°33' E 135°25'5 9.6
2017-Nov-10 04:30N 34°33' E 135°19'4 7.6
2017-Nov-10 04:00N 34°33' E 135°24'1 0.2
2017-Nov-09 22:53N 34°33' E 135°25'4 1.4
2017-Nov-09 19:47N 34°32' E 135°20'0 0.0
2017-Nov-09 19:23N 34°32' E 135°20'0 0.0
2017-Nov-09 17:59N 34°32' E 135°20'0 0.0
2017-Nov-09 17:17N 34°32' E 135°20'0 0.0
2017-Nov-09 16:59N 34°32' E 135°20'0 0.0
2017-Nov-09 13:37N 34°32' E 135°20'1 5.9
2017-Nov-09 13:30N 34°31' E 135°20'611.7
2017-Nov-09 13:00N 34°28' E 135°13'611.4
2017-Nov-09 12:27N 34°24' E 135°08'1310.2
2017-Nov-09 11:09N 34°13' E 134°60'211.1
2017-Nov-09 10:59N 34°11' E 134°60'244 9.4
2017-Nov-08 09:01N 35°13' E 139°46'211.8
2017-Nov-08 08:52N 35°15' E 139°46'411.7
2017-Nov-08 08:30N 35°18' E 139°44'611.1
2017-Nov-08 08:00N 35°24' E 139°43'611.3
2017-Nov-08 07:30N 35°28' E 139°48'7 1.1
2017-Nov-08 00:54N 35°30' E 139°57'1 2.0
2017-Nov-08 00:29N 35°29' E 139°56'0 0.0
2017-Nov-07 23:58N 35°29' E 139°56'0 0.0
2017-Nov-07 22:29N 35°29' E 139°56'0 0.0
2017-Nov-07 21:57N 35°29' E 139°56'0 0.0
2017-Nov-07 19:57N 35°29' E 139°56'0 0.0
2017-Nov-07 18:43N 35°29' E 139°56'0 0.0
2017-Nov-07 18:29N 35°29' E 139°56'0 0.0
2017-Nov-07 17:46N 35°29' E 139°56'0 0.0
2017-Nov-07 17:25N 35°29' E 139°56'0 0.0
2017-Nov-07 16:59N 35°29' E 139°56'0 0.0
2017-Nov-07 16:29N 35°29' E 139°56'0 0.0
2017-Nov-07 14:10N 35°29' E 139°56'0 0.0
2017-Nov-07 11:34N 35°29' E 139°56'0 0.0
2017-Nov-07 11:29N 35°29' E 139°56'0 0.0
2017-Nov-07 10:00N 35°29' E 139°56'0 0.0
2017-Nov-07 09:20N 35°29' E 139°56'0 0.0
2017-Nov-07 08:56N 35°29' E 139°56'0 0.0
2017-Nov-07 08:21N 35°29' E 139°56'4 2.0
2017-Nov-07 06:19N 35°28' E 139°51'413.1
2017-Nov-07 06:00N 35°25' E 139°47'613.2
2017-Nov-07 05:31N 35°19' E 139°44'612.4
2017-Nov-07 04:59N 35°13' E 139°47'  

Dump ship's entire track history